Flag for Germany Weather past 2 weeks in Walsrode, Lower Saxony, Germany

39 °F

Rain. Fog.

Feels Like: 29 °F
Forecast: 42 / 47 °F
Wind: 20 mph from Southwest

Location: Fassberg

Current Time: Nov 29, 2015 at 3:33:52 AM

Latest Report: Nov 29, 2015 at 2:20 AM

Visibility: 2 mi

Pressure: 29.65 "Hg

Humidity: 93%

Dew point: 37 °F

Location of WalsrodeLocation

Historic Weather in Walsrode — Graph


Walsrode temperature yesterday

Maximum temperature yesterday: 45 °F (at 2:20 PM)
Minimum temperature yesterday: 34 °F (at 12:20 AM)
Average temperature yesterday: 39 °F

Past Weeks' High & Low Weather Summary

High57 °F (Nov 18, 12:20 AM)100% (Nov 15, 5:20 AM)30.18 "Hg (Nov 15, 5:20 AM)
Low28 °F (Nov 26, 10:20 PM)61% (Nov 24, 12:20 PM)29.33 "Hg (Nov 21, 3:20 AM)
Average43 °F87%29.75 "Hg
* Reported Nov 14 1:20 AM — Nov 29 1:20 AM, Walsrode, Weather by CustomWeather, © 2015

Note: Actual official high and low records may vary slightly from our data, if they occured in-between our weather recording intervals... More about our weather records


Walsrode weather history for previous 24 hours

Time TempWeatherWind HumidityBarometerVisibility
1:20 AM
Sun, Nov 29
39 °FLight rain. Passing clouds.15 mph87%29.68 "Hg4 mi
12:20 AM39 °FPassing clouds.14 mph87%29.71 "HgN/A
11:20 PM
Sat, Nov 28
39 °FLight rain. Passing clouds.13 mph87%29.74 "Hg4 mi
10:20 PM39 °FLight rain. Fog.15 mph81%29.80 "Hg3 mi
9:20 PM39 °FPassing clouds.13 mph81%29.83 "HgN/A
8:20 PM39 °FPartly cloudy.10 mph81%29.83 "HgN/A
7:20 PM39 °FPassing clouds.10 mph81%29.86 "HgN/A
6:20 PM39 °FPassing clouds.12 mph81%29.83 "HgN/A
5:20 PM41 °FPassing clouds.12 mph76%29.83 "HgN/A
4:20 PM43 °FScattered showers. Partly cloudy.10 mph76%29.83 "HgN/A
3:20 PM43 °FScattered clouds.12 mph76%29.80 "HgN/A
2:20 PM45 °FScattered clouds.12 mph76%29.77 "HgN/A
1:20 PM43 °FScattered clouds.13 mph87%29.74 "HgN/A
12:20 PM43 °FBroken clouds.10 mph87%29.71 "HgN/A
11:20 AM41 °FSprinkles. Partly sunny.13 mph93%29.71 "Hg5 mi
11:04 AM41 °FPartly sunny.13 mph93%29.68 "Hg5 mi
10:50 AM41 °FDrizzle. Fog.13 mph93%29.68 "Hg3 mi
10:20 AM39 °FPartly sunny.10 mph93%29.68 "Hg5 mi
9:20 AM37 °FLight rain. Fog.12 mph93%29.62 "Hg3 mi
8:20 AM36 °FDrizzle. Fog.10 mph93%29.62 "Hg2 mi
7:20 AM36 °FDrizzle. Fog.13 mph93%29.59 "Hg2 mi
6:20 AM34 °FPassing clouds.10 mph93%29.59 "Hg4 mi
5:20 AM36 °FPassing clouds.12 mph81%29.62 "HgN/A
4:20 AM34 °FPassing clouds.10 mph87%29.62 "HgN/A
3:20 AM34 °FPassing clouds.12 mph81%29.65 "HgN/A
Weather by CustomWeather, © 2015

See weather overviewHow to use our weather pages